GW2440 Weather Reports


Display with metric or nautical units.
time (UTC)temp
F
wind
direction
speed
MPH
gust
MPH
rain 1hr
in
rain 24hr
in
rain mn
in
humidity
%
barometer
mb
20260904135702 85 240 3.0 5.0 0.00 0.00 0.00 88 1017.9
20260904135157 85 199 1.0 1.0 0.00 0.00 0.00 89 1017.9
20260904134653 84 155 1.0 2.0 0.00 0.00 0.00 89 1017.5
20260904134152 84 201 3.0 3.0 0.00 0.00 0.00 90 1017.9
20260904133647 84 163 3.0 3.0 0.00 0.00 0.00 91 1017.5
20260904133143 83 233 3.0 3.0 0.00 0.00 0.00 92 1017.9
20260904132643 83 227 3.0 3.0 0.00 0.00 0.00 92 1017.9
20260904132138 83 209 2.0 2.0 0.00 0.00 0.00 92 1017.5
20260904131637 82 207 2.0 2.0 0.00 0.00 0.00 93 1017.5
20260904131133 82 186 1.0 1.0 0.00 0.00 0.00 93 1017.5
20260904130632 82 191 1.0 2.0 0.00 0.00 0.00 94 1017.5
20260904130127 82 141 2.0 2.0 0.00 0.00 0.00 94 1017.5
20260904125624 81 208 1.0 1.0 0.00 0.00 0.00 95 1017.5
20260904125119 81 205 2.0 2.0 0.00 0.00 0.00 96 1017.5
20260904124614 81 170 2.0 2.0 0.00 0.00 0.00 97 1017.5
20260904124109 81 181 1.0 1.0 0.00 0.00 0.00 97 1017.9
20260904123604 80 174 0.0 0.0 0.00 0.00 0.00 97 1017.5
20260904123100 80 173 0.0 0.0 0.00 0.00 0.00 97 1017.5
20260904122600 80 181 0.0 0.0 0.00 0.00 0.00 98 1017.5
20260904122055 79 155 0.0 0.0 0.00 0.00 0.00 99 1017.5
20260904121550 79 174 1.0 2.0 0.00 0.00 0.00 99 1017.5
20260904121046 79 176 0.0 0.0 0.00 0.00 0.00 99 1017.2
20260904120542 78 166 0.0 0.0 0.00 0.00 0.00 99 1017.2
20260904120037 77 120 0.0 0.0 0.00 0.00 0.00 99 1017.2
20260904115532 77 110 0.0 0.0 0.00 0.00 0.00 99 1017.2
20260904115027 76 123 0.0 0.0 0.00 0.00 0.00 99 1017.2
20260904114522 76 123 0.0 0.0 0.00 0.00 0.00 99 1017.2
20260904114021 76 124 0.0 0.0 0.00 0.00 0.00 99 1017.2
20260904113516 76 124 0.0 0.0 0.00 0.00 0.00 99 1016.9
20260904113016 76 124 0.0 0.0 0.00 0.00 0.00 99 1016.9
20260904112511 75 124 0.0 0.0 0.00 0.00 0.00 99 1016.9
20260904112007 75 124 0.0 0.0 0.00 0.00 0.00 99 1016.9
20260904111503 75 124 0.0 0.0 0.00 0.00 0.00 99 1016.9
20260904110958 75 124 0.0 0.0 0.00 0.00 0.00 99 1016.5
20260904110457 75 124 0.0 0.0 0.00 0.00 0.00 99 1016.5
20260904105953 75 124 0.0 0.0 0.00 0.00 0.00 99 1016.5
20260904105452 75 124 0.0 0.0 0.00 0.00 0.00 99 1016.5
20260904104947 75 124 0.0 0.0 0.00 0.00 0.00 99 1016.5
20260904104442 75 124 0.0 0.0 0.00 0.00 0.00 99 1016.2
20260904103933 75 124 0.0 0.0 0.00 0.00 0.00 99 1016.2
20260904103428 75 124 0.0 0.0 0.00 0.00 0.00 99 1016.5
20260904102924 75 124 0.0 0.0 0.00 0.00 0.00 99 1016.5
20260904102420 75 124 0.0 0.0 0.00 0.00 0.00 99 1016.2
20260904101915 76 124 0.0 0.0 0.00 0.00 0.00 99 1016.2
20260904101412 76 124 0.0 0.0 0.00 0.00 0.00 99 1016.2
20260904100907 76 124 0.0 0.0 0.00 0.00 0.00 99 1016.2
20260904100402 75 124 0.0 0.0 0.00 0.00 0.00 99 1016.2
20260904095857 76 124 0.0 0.0 0.00 0.00 0.00 99 1016.2
20260904095352 76 124 0.0 0.0 0.00 0.00 0.00 99 1016.2
20260904094847 76 124 0.0 0.0 0.00 0.00 0.00 99 1016.2
20260904094342 76 124 0.0 0.0 0.00 0.00 0.00 99 1016.2
20260904093838 76 124 0.0 0.0 0.00 0.00 0.00 99 1016.2
20260904093338 76 124 0.0 0.0 0.00 0.00 0.00 99 1016.2
20260904092833 76 124 0.0 0.0 0.00 0.00 0.00 99 1016.2
20260904092330 76 123 0.0 0.0 0.00 0.00 0.00 99 1016.2
20260904091826 76 123 0.0 0.0 0.00 0.00 0.00 99 1015.8
20260904091321 76 123 0.0 0.0 0.00 0.00 0.00 99 1016.2
20260904090816 76 123 0.0 0.0 0.00 0.00 0.00 99 1016.2
20260904090312 76 123 0.0 0.0 0.00 0.00 0.00 99 1016.2
20260904085807 76 123 0.0 0.0 0.00 0.00 0.00 99 1015.8
20260904085305 76 123 0.0 0.0 0.00 0.00 0.00 99 1015.8
20260904084756 76 123 0.0 0.0 0.00 0.00 0.00 99 1016.2
20260904084252 76 127 0.0 0.0 0.00 0.00 0.00 99 1015.8
20260904083748 76 126 0.0 0.0 0.00 0.00 0.00 99 1016.2
20260904083245 76 126 0.0 0.0 0.00 0.00 0.00 99 1016.2
20260904082745 76 127 0.0 0.0 0.00 0.00 0.00 99 1015.8
20260904082240 76 127 0.0 0.0 0.00 0.00 0.00 99 1015.8
20260904081735 76 127 0.0 0.0 0.00 0.00 0.00 99 1015.8
20260904081231 76 127 0.0 0.0 0.00 0.00 0.00 99 1016.2
20260904080726 76 127 0.0 0.0 0.00 0.00 0.00 99 1015.8
20260904080222 77 127 0.0 0.0 0.00 0.00 0.00 99 1015.8
20260904075718 77 126 0.0 0.0 0.00 0.00 0.00 99 1015.5
20260904075213 76 126 0.0 0.0 0.00 0.00 0.00 99 1015.8
20260904074712 76 126 0.0 0.0 0.00 0.00 0.00 99 1015.8
20260904074206 77 126 0.0 0.0 0.00 0.00 0.00 99 1015.8
20260904073702 77 126 0.0 0.0 0.00 0.00 0.00 99 1015.5
20260904073158 77 126 0.0 0.0 0.00 0.00 0.00 99 1015.5
20260904072653 77 126 0.0 0.0 0.00 0.00 0.00 99 1015.8
20260904072148 77 126 0.0 0.0 0.00 0.00 0.00 99 1015.5
20260904071644 77 126 0.0 0.0 0.00 0.00 0.00 99 1015.8
20260904071139 77 125 0.0 0.0 0.00 0.00 0.00 99 1015.5
20260904070637 77 126 0.0 0.0 0.00 0.00 0.00 99 1015.8
20260904070132 77 126 0.0 0.0 0.00 0.00 0.00 99 1015.5
20260904065632 77 126 0.0 0.0 0.00 0.00 0.00 99 1015.8
20260904065130 77 126 0.0 0.0 0.00 0.00 0.00 99 1015.5
20260904064624 77 125 0.0 0.0 0.00 0.00 0.00 99 1015.5
20260904064119 77 81 0.0 0.0 0.00 0.00 0.00 99 1015.8
20260904063615 77 116 0.0 0.0 0.00 0.00 0.00 99 1015.8
20260904063110 77 135 0.0 0.0 0.00 0.00 0.00 99 1016.2
20260904062607 77 137 0.0 0.0 0.00 0.00 0.00 99 1015.8
20260904062102 77 139 0.0 0.0 0.00 0.00 0.00 99 1015.8
20260904061557 77 115 0.0 0.0 0.00 0.00 0.00 99 1016.2
20260904061054 78 101 0.0 0.0 0.00 0.00 0.00 99 1016.2
20260904060550 78 135 0.0 0.0 0.00 0.00 0.00 99 1016.2
20260904060046 78 162 0.0 0.0 0.00 0.00 0.00 99 1016.2
20260904055546 78 177 0.0 0.0 0.00 0.00 0.00 99 1016.2
20260904055041 78 169 0.0 0.0 0.00 0.00 0.00 99 1016.2
20260904054537 78 115 0.0 0.0 0.00 0.00 0.00 99 1016.2
20260904054033 78 121 0.0 0.0 0.00 0.00 0.00 99 1016.5
20260904053532 78 114 0.0 0.0 0.00 0.00 0.00 99 1016.5
20260904053027 78 140 0.0 0.0 0.00 0.00 0.00 99 1016.5
20260904052524 78 128 0.0 0.0 0.00 0.00 0.00 99 1016.5
20260904052020 77 128 0.0 0.0 0.00 0.00 0.00 99 1016.9
20260904051516 77 128 0.0 0.0 0.00 0.00 0.00 99 1016.5
20260904051015 78 128 0.0 0.0 0.00 0.00 0.00 99 1016.9
20260904050512 77 128 0.0 0.0 0.00 0.00 0.00 99 1016.5
20260904050007 77 151 0.0 0.0 0.00 0.00 0.00 99 1016.9
20260904045502 77 151 0.0 0.0 0.00 0.00 0.00 99 1016.9
20260904044956 77 153 0.0 0.0 0.00 0.00 0.00 99 1016.9
20260904044452 77 153 0.0 0.0 0.00 0.00 0.00 99 1016.9
20260904043943 77 153 0.0 0.0 0.00 0.00 0.00 99 1016.9
20260904043439 77 157 0.0 0.0 0.00 0.00 0.00 99 1016.9
20260904042935 77 160 0.0 0.0 0.00 0.00 0.00 99 1017.2
20260904042431 77 160 0.0 0.0 0.00 0.00 0.00 99 1017.2
20260904041925 77 160 0.0 0.0 0.00 0.00 0.00 99 1016.9
20260904041422 77 131 0.0 0.0 0.00 0.00 0.00 99 1016.9
20260904040918 78 131 0.0 0.0 0.00 0.00 0.00 99 1016.9
20260904040412 78 131 0.0 0.0 0.00 0.00 0.00 99 1016.9
20260904035908 78 131 0.0 0.0 0.00 0.14 0.14 99 1016.9
20260904035404 78 131 0.0 0.0 0.00 0.14 0.14 99 1016.5
20260904034903 78 131 0.0 0.0 0.00 0.14 0.14 99 1016.9
20260904034358 78 131 0.0 0.0 0.00 0.14 0.14 99 1016.9
20260904033854 78 131 0.0 0.0 0.00 0.14 0.14 99 1016.9
20260904033350 78 131 0.0 0.0 0.00 0.14 0.14 99 1016.9
20260904032846 78 131 0.0 0.0 0.00 0.14 0.14 99 1016.5
20260904032340 78 138 0.0 0.0 0.00 0.14 0.14 98 1016.5
20260904031834 78 139 0.0 0.0 0.00 0.14 0.14 98 1016.5
20260904031330 78 138 0.0 0.0 0.00 0.14 0.14 98 1016.5
20260904030826 79 138 0.0 0.0 0.00 0.14 0.14 98 1016.5
20260904030321 79 138 0.0 0.0 0.00 0.14 0.14 98 1016.5
20260904025817 79 158 0.0 0.0 0.00 0.14 0.14 97 1016.5
20260904025313 79 159 0.0 0.0 0.00 0.14 0.14 97 1016.9
20260904024813 79 153 0.0 0.0 0.00 0.14 0.14 96 1016.5
20260904024308 79 158 0.0 0.0 0.00 0.14 0.14 96 1016.9
20260904023805 79 168 0.0 0.0 0.00 0.14 0.14 96 1016.2
20260904023300 79 97 2.0 3.0 0.00 0.14 0.14 96 1016.5
20260904022759 79 83 2.0 2.0 0.00 0.14 0.14 96 1016.5
20260904022256 80 121 0.0 1.0 0.00 0.14 0.14 97 1016.9
20260904021753 80 145 2.0 2.0 0.00 0.14 0.14 97 1016.5
20260904021247 80 144 1.0 2.0 0.00 0.14 0.14 97 1016.5
20260904020743 80 181 1.0 2.0 0.00 0.14 0.14 97 1016.5
20260904020242 80 153 1.0 1.0 0.00 0.14 0.14 98 1016.9
20260904015741 80 148 0.0 1.0 0.00 0.14 0.14 97 1016.9
20260904015237 80 100 1.0 2.0 0.00 0.14 0.14 97 1016.9
20260904014735 80 114 1.0 2.0 0.00 0.14 0.14 98 1016.9
20260904014230 80 129 2.0 2.0 0.00 0.14 0.14 98 1016.5
20260904013726 80 86 2.0 2.0 0.00 0.14 0.14 98 1016.5
20260904013222 80 128 2.0 2.0 0.00 0.14 0.14 98 1016.9
20260904012717 80 39 1.0 1.0 0.00 0.14 0.14 99 1016.9
20260904012211 80 116 0.0 1.0 0.00 0.14 0.14 99 1016.9
20260904011711 80 66 2.0 2.0 0.00 0.14 0.14 99 1016.9
20260904011207 81 85 1.0 1.0 0.00 0.14 0.14 98 1016.5
20260904010707 81 96 1.0 2.0 0.00 0.14 0.14 98 1016.5
20260904010204 81 52 1.0 2.0 0.00 0.14 0.14 98 1016.5
20260904005659 81 57 1.0 2.0 0.00 0.14 0.14 98 1016.5
20260904005155 81 84 3.0 3.0 0.00 0.14 0.14 98 1016.5
20260904004649 81 85 3.0 3.0 0.00 0.14 0.14 98 1016.5
20260904004143 81 168 0.0 1.0 0.00 0.14 0.14 98 1016.5
20260904003634 81 104 0.0 0.0 0.00 0.14 0.14 98 1016.5
20260904003130 81 149 0.0 0.0 0.00 0.14 0.14 98 1016.5
20260904002626 81 124 1.0 1.0 0.00 0.14 0.14 98 1016.5
20260904002126 81 149 0.0 0.0 0.00 0.14 0.14 98 1016.5
20260904001621 81 126 3.0 5.0 0.00 0.14 0.14 97 1016.2
20260904001120 81 122 0.0 0.0 0.00 0.14 0.14 97 1016.2
20260904000615 81 87 2.0 2.0 0.00 0.14 0.14 97 1015.8
20260904000111 81 132 1.0 2.0 0.00 0.14 0.14 97 1016.2
20260903235610 81 70 1.0 2.0 0.00 0.14 0.14 97 1016.2
20260903235107 81 55 1.0 2.0 0.00 0.14 0.14 97 1016.2
20260903234601 81 81 2.0 2.0 0.00 0.14 0.14 96 1016.2
20260903234057 81 60 1.0 1.0 0.00 0.14 0.14 96 1016.2
20260903233553 81 95 2.0 2.0 0.00 0.14 0.14 96 1016.2
20260903233048 82 104 3.0 5.0 0.00 0.14 0.14 96 1016.2
20260903232543 82 117 3.0 3.0 0.00 0.14 0.14 96 1016.2
20260903232039 82 143 3.0 3.0 0.00 0.14 0.14 96 1016.2
20260903231533 82 193 1.0 1.0 0.00 0.14 0.14 96 1016.2
20260903231027 82 162 0.0 1.0 0.00 0.14 0.14 95 1015.8
20260903230524 82 148 1.0 2.0 0.00 0.14 0.14 95 1015.8
20260903230022 82 157 1.0 1.0 0.00 0.14 0.14 95 1015.8
20260903225520 82 166 3.0 3.0 0.00 0.14 0.14 95 1015.8
20260903225016 82 64 3.0 5.0 0.00 0.14 0.14 94 1015.8
20260903224512 82 78 1.0 3.0 0.00 0.14 0.14 94 1015.8
20260903224008 82 92 5.0 7.0 0.00 0.14 0.14 94 1016.2
20260903223507 82 90 1.0 2.0 0.00 0.14 0.14 94 1015.8
20260903223006 82 123 1.0 1.0 0.00 0.14 0.14 94 1015.5
20260903222501 82 45 3.0 5.0 0.00 0.14 0.14 93 1015.8
20260903222000 82 60 2.0 2.0 0.00 0.14 0.14 94 1015.8
20260903221455 82 151 1.0 2.0 0.00 0.14 0.14 94 1015.8
20260903220953 82 87 1.0 2.0 0.00 0.14 0.14 94 1015.5
20260903220447 82 109 3.0 5.0 0.00 0.14 0.14 94 1015.5
20260903215944 82 47 5.0 6.0 0.00 0.14 0.14 93 1015.2
20260903215442 82 122 2.0 2.0 0.00 0.14 0.14 94 1015.2
20260903214939 82 41 5.0 7.0 0.00 0.14 0.14 94 1015.2
20260903214435 83 49 6.0 7.0 0.00 0.14 0.14 94 1015.2
20260903213935 83 61 4.0 7.0 0.00 0.14 0.14 93 1015.5
20260903213431 83 61 2.0 2.0 0.00 0.14 0.14 93 1015.2
20260903212927 83 98 2.0 6.0 0.00 0.14 0.14 93 1015.2
20260903212422 82 69 1.0 1.0 0.00 0.14 0.14 94 1015.5
20260903211922 82 55 3.0 5.0 0.00 0.14 0.14 94 1015.2
20260903211418 82 103 5.0 6.0 0.00 0.14 0.14 93 1015.2
20260903210914 82 38 3.0 3.0 0.00 0.14 0.14 93 1015.2
20260903210413 82 64 1.0 2.0 0.00 0.14 0.14 94 1015.2
20260903205909 82 50 6.0 8.0 0.00 0.14 0.14 93 1015.2
20260903205408 82 37 4.0 6.0 0.00 0.14 0.14 93 1014.8
20260903204903 82 46 3.0 3.0 0.00 0.14 0.14 93 1014.8
20260903204359 82 54 6.0 7.0 0.00 0.14 0.14 93 1015.2
20260903203854 83 63 7.0 8.0 0.00 0.14 0.14 94 1015.2
20260903203350 82 43 5.0 5.0 0.00 0.14 0.14 93 1014.8
20260903202849 82 26 5.0 7.0 0.00 0.14 0.14 93 1014.8
20260903202346 83 40 5.0 6.0 0.00 0.14 0.14 93 1015.2
20260903201845 83 68 2.0 2.0 0.00 0.14 0.14 93 1015.2
20260903201340 83 86 1.0 1.0 0.00 0.14 0.14 93 1015.5
20260903200838 82 50 4.0 6.0 0.00 0.14 0.14 94 1015.8
20260903200329 83 93 3.0 3.0 0.00 0.14 0.14 93 1015.5
20260903195824 83 93 3.0 3.0 0.00 0.14 0.14 92 1015.5
20260903195320 83 52 3.0 5.0 0.00 0.14 0.14 92 1015.8
20260903194814 83 63 4.0 6.0 0.00 0.14 0.14 92 1016.2
20260903194311 83 39 3.0 5.0 0.00 0.14 0.14 92 1015.8
20260903193806 83 71 3.0 5.0 0.00 0.14 0.14 92 1015.8
20260903193302 83 59 4.0 5.0 0.00 0.14 0.14 93 1015.8
20260903192757 83 49 5.0 6.0 0.00 0.14 0.14 92 1016.2
20260903192253 83 72 4.0 5.0 0.00 0.14 0.14 92 1016.2
20260903191749 83 35 5.0 9.0 0.00 0.14 0.14 92 1016.5
20260903191245 83 60 9.0 9.0 0.00 0.14 0.14 92 1016.2
20260903190739 83 96 2.0 2.0 0.00 0.14 0.14 92 1016.2
20260903190238 84 59 2.0 3.0 0.00 0.14 0.14 92 1016.2
20260903185733 84 83 5.0 6.0 0.00 0.14 0.14 92 1016.2
20260903185228 84 52 5.0 6.0 0.00 0.14 0.14 92 1016.2
20260903184725 83 48 4.0 5.0 0.00 0.14 0.14 93 1016.2
20260903184220 83 83 5.0 5.0 0.00 0.14 0.14 93 1016.5
20260903183721 83 35 7.0 8.0 0.00 0.14 0.14 93 1016.9
20260903183215 83 37 7.0 8.0 0.00 0.14 0.14 92 1016.5
20260903182713 84 55 5.0 7.0 0.00 0.14 0.14 92 1016.5
20260903182209 84 66 3.0 3.0 0.00 0.14 0.14 92 1016.5
20260903181707 85 82 9.0 9.0 0.00 0.14 0.14 91 1016.5
20260903181202 85 41 5.0 6.0 0.00 0.14 0.14 89 1016.5
20260903180658 85 49 1.0 2.0 0.00 0.14 0.14 88 1016.5
20260903180152 84 61 4.0 6.0 0.00 0.14 0.14 89 1016.9
20260903175650 84 77 4.0 6.0 0.00 0.14 0.14 92 1016.9
20260903175145 84 164 3.0 3.0 0.00 0.14 0.14 90 1016.9
20260903174639 82 82 4.0 6.0 0.00 0.14 0.14 94 1016.9
20260903174134 82 44 5.0 7.0 0.00 0.14 0.14 95 1016.5
20260903173629 82 38 5.0 5.0 0.00 0.14 0.14 96 1016.9
20260903173126 82 59 5.0 6.0 0.00 0.14 0.14 95 1016.9
20260903172625 83 46 3.0 3.0 0.00 0.14 0.14 95 1016.9
20260903172121 82 82 2.0 5.0 0.00 0.14 0.14 94 1017.2
20260903171621 81 34 4.0 5.0 0.00 0.14 0.14 96 1017.2
20260903171117 81 48 3.0 5.0 0.00 0.14 0.14 96 1017.5
20260903170615 81 89 2.0 2.0 0.00 0.14 0.14 96 1016.9
20260903170111 81 56 4.0 6.0 0.00 0.14 0.14 96 1017.5
20260903165609 81 45 3.0 5.0 0.00 0.14 0.14 96 1017.5
20260903165104 81 59 1.0 1.0 0.00 0.14 0.14 95 1017.2
20260903164559 81 68 2.0 2.0 0.00 0.14 0.14 96 1017.9
20260903164055 81 120 0.0 1.0 0.00 0.14 0.14 96 1017.5
20260903163555 81 78 5.0 6.0 0.00 0.14 0.14 96 1017.5
20260903163051 81 93 4.0 5.0 0.00 0.14 0.14 94 1017.9
20260903162547 81 168 1.0 1.0 0.00 0.14 0.14 95 1017.9
20260903162042 82 97 2.0 3.0 0.00 0.14 0.14 95 1017.9
20260903161538 81 79 3.0 3.0 0.00 0.14 0.14 94 1017.9
20260903161033 81 67 4.0 6.0 0.00 0.14 0.14 97 1017.5
20260903160532 81 91 3.0 5.0 0.00 0.14 0.14 98 1017.9
20260903160027 80 96 2.0 2.0 0.00 0.14 0.14 98 1017.5
20260903155520 80 60 3.0 3.0 0.00 0.14 0.14 98 1017.5
20260903155016 80 64 3.0 3.0 0.00 0.14 0.14 99 1017.9
20260903154512 80 52 2.0 2.0 0.00 0.14 0.14 99 1017.9
20260903154008 79 44 3.0 3.0 0.00 0.14 0.14 99 1017.5
20260903153503 79 70 2.0 2.0 0.00 0.14 0.14 99 1017.5
20260903152959 79 48 2.0 3.0 0.00 0.14 0.14 99 1017.5
20260903152454 78 51 5.0 6.0 0.00 0.14 0.14 99 1017.9
20260903151950 78 65 2.0 3.0 0.00 0.14 0.14 99 1017.9
20260903151444 78 58 3.0 3.0 0.00 0.14 0.14 99 1017.9
20260903150940 78 48 1.0 2.0 0.00 0.14 0.14 99 1017.9
20260903150439 77 25 3.0 3.0 0.00 0.14 0.14 99 1017.5
20260903145934 77 56 2.0 2.0 0.00 0.14 0.14 99 1017.9
20260903145430 77 39 3.0 3.0 0.07 0.14 0.14 99 1017.5
20260903144924 77 91 1.0 1.0 0.07 0.14 0.14 99 1017.5
20260903144424 77 81 2.0 3.0 0.07 0.13 0.13 99 1017.9
20260903143919 77 62 3.0 3.0 0.12 0.13 0.13 99 1017.2
20260903143415 77 51 2.0 3.0 0.17 0.12 0.12 99 1017.9
20260903142911 77 84 2.0 2.0 0.12 0.11 0.11 99 1017.5
20260903142401 77 26 3.0 3.0 0.07 0.09 0.09 99 1017.9
20260903141857 77 69 4.0 5.0 0.07 0.09 0.09 99 1017.5
20260903141353 77 80 2.0 2.0 0.00 0.08 0.08 99 1017.5
20260903140848 77 73 2.0 2.0 0.00 0.08 0.08 99 1017.5
20260903140343 77 38 2.0 2.0 0.05 0.08 0.08 99 1017.5
20260903135839 77 43 2.0 2.0 0.05 0.08 0.08 99 1017.5